Retour au catalogue

STARLINK-11231

ActifCommunicationsVLEO
NORAD 61057·PAYLOAD·🇺🇸 United States

Lancé Sep 13, 2024 depuis Vandenberg Space Force Base

Loading…

Prochains Passages (prochaines 24 heures)

TLE

FraisSource: CelesTrak SupGP

Époque: Sep 15, 2026, 03:18 UTC

1 61057C 24164H   26258.13798611  .00006193  00000+0  50972-4 0  2588
2 61057  53.1566  97.7138 0001114  77.8333 117.2664 15.69724279    10

Suivez STARLINK-11231 en temps réel avec AllMySat

Download on the App Store